User: anonymous   Login
Location: Holcomb Observatory
(44.4922°N, 73.1654°W)
Time: 00:22:41
(UTC-05:00)
Language:

SL-16 R/B - Orbit

View from above orbital plane
View from above orbital plane
View from above satellite
View from above satellite

Ground track
Ground track

The orbit data is extracted from the following two-line orbital elements,

1 27006U 01056F   14330.51013759  .00000040  00000-0  91971-4 0  2997
2 27006 099.1803 131.0799 0014145 224.7628 167.6444 13.70931211648562
Epoch (UTC): 26 November 2014 12:14:35
Eccentricity: 0.0014145
inclination: 99.1803°
perigee height: 986 km
apogee height: 1006 km
right ascension of ascending node: 131.0799°
argument of perigee: 224.7628°
revolutions per day: 13.70931211
mean anomaly at epoch: 167.6444°
orbit number at epoch: 64856

The dashed part of the orbit path shows where the satellite is in the earth's shadow,  

DLR